Theta_e
289 289 289 289 288 288 288 288 288 287 287 287 287 287 287 287 287 287 287 287 287 288 288 288 293 295 295 295 296 296 296 296 296 296 296 296 296 296 296 296 297 298 298
289 288 288 288 288 288 288 287 287 287 287 287 287 287 287 287 287 287 287 286 286 286 287 287 287 287 290 294 294 294 295 295 295 295 295 296 296 296 296 296 296 296 297
288 288 288 288 288 287 287 287 287 286 286 286 286 286 286 286 286 286 286 286 286 286 286 286 286 286 286 286 287 292 294 293 293 294 294 294 295 295 295 295 295 296 296
289 288 288 288 287 287 287 286 286 285 285 285 285 285 285 285 285 285 284 284 285 285 285 285 285 286 286 286 285 286 286 290 293 292 293 293 293 294 294 295 295 295 295
289 289 288 287 287 286 286 285 285 285 284 284 284 284 284 283 283 283 283 282 283 283 284 284 285 285 285 285 285 285 285 285 286 291 292 291 292 293 293 294 294 294 294
289 289 289 287 286 286 285 284 284 284 283 283 282 282 282 282 281 280 279 280 280 281 282 282 283 283 284 285 284 285 285 285 285 285 288 291 292 291 292 292 293 293 293
289 288 287 286 285 284 284 283 282 282 282 282 282 281 282 282 281 278 278 278 278 278 279 280 280 281 282 282 283 284 284 285 285 284 285 286 290 291 290 291 292 292 293
288 287 286 284 284 283 282 282 281 281 281 281 281 280 280 280 277 276 274 275 276 276 276 277 277 278 279 279 280 281 282 283 284 285 285 285 285 286 291 290 290 291 291
287 285 284 283 282 281 281 281 281 281 280 279 278 277 276 275 273 272 271 272 273 274 273 273 273 274 275 277 278 279 280 281 283 283 284 285 285 285 286 290 290 288 288
285 284 283 282 281 280 280 280 279 278 278 276 275 273 272 271 271 271 270 270 270 271 271 271 272 274 275 276 277 278 279 280 281 282 283 283 284 285 284 288 290 289 289
284 283 282 281 280 280 280 278 278 277 276 274 273 271 270 270 270 269 269 270 270 270 270 271 271 272 273 274 275 277 278 279 281 282 283 284 284 284 284 284 287 290 289
283 282 281 280 280 279 278 278 276 275 273 271 270 269 269 269 269 269 268 269 270 271 271 270 271 271 272 273 274 274 276 278 280 282 283 284 284 284 283 284 284 288 289
282 281 280 280 279 278 277 276 275 273 271 270 268 268 268 268 268 269 268 269 270 270 271 271 272 273 274 274 273 273 274 275 276 278 283 284 285 285 285 284 283 286 287
281 280 279 279 278 278 276 275 273 272 271 269 267 267 268 268 269 269 269 271 272 272 273 273 274 274 273 274 273 273 273 273 274 276 280 284 285 286 286 285 285 285 285
280 279 279 278 278 277 275 274 273 272 269 267 268 269 269 269 269 271 272 272 273 274 274 275 275 275 274 274 273 272 273 273 274 277 279 283 284 286 286 286 285 285 285
279 278 277 277 277 275 274 274 274 273 271 267 268 269 269 269 270 272 272 273 273 274 275 276 275 275 274 274 273 273 273 273 275 278 281 282 284 284 285 285 285 285 285
278 277 276 276 275 274 273 272 272 275 273 270 267 268 268 269 269 270 271 272 272 272 273 273 273 273 273 273 273 273 273 273 275 276 280 281 281 281 282 285 285 285 285
277 276 275 275 274 274 273 272 271 271 270 274 273 270 269 267 268 269 268 269 272 273 272 272 272 272 271 272 273 273 273 274 275 277 278 281 281 282 284 284 284 285 284
275 275 274 274 274 273 272 272 271 271 270 270 272 273 271 270 269 270 270 270 270 271 271 272 272 272 272 275 275 275 275 274 274 275 276 279 281 281 284 284 284 284 283
274 273 273 273 273 272 272 271 272 271 270 270 270 270 269 269 271 271 270 270 270 270 270 271 272 273 274 275 275 276 276 276 277 276 277 279 280 281 282 284 284 283 282
273 273 272 272 272 272 272 271 271 270 270 270 270 270 267 268 269 269 269 269 269 269 270 271 272 273 274 275 277 277 278 280 280 280 280 280 281 281 282 282 283 283 282
271 271 271 271 271 271 271 270 270 270 270 269 270 270 269 269 269 269 269 269 269 269 269 270 271 272 272 273 275 276 277 278 279 280 280 281 281 281 281 281 281 280 279
270 270 270 270 270 270 270 270 270 270 269 269 269 269 269 269 269 269 269 269 269 269 270 270 270 271 272 273 273 274 275 276 276 277 277 278 278 279 279 279 279 278 278
269 269 269 269 269 270 269 270 270 269 269 269 269 269 269 269 269 269 269 269 269 269 270 270 270 270 270 271 272 273 274 274 275 275 275 276 276 277 277 277 277 276 276
269 268 268 268 268 268 268 269 269 269 269 269 269 269 269 269 269 269 269 269 269 269 270 270 270 270 270 270 270 271 272 273 273 273 274 274 274 275 275 275 274 274 274
268 268 268 267 268 268 268 268 268 268 268 269 269 269 269 269 269 269 269 269 269 270 270 270 270 270 270 270 270 270 271 272 272 272 272 272 273 273 273 273 272 272 272
Wind_Speed
6 7 9 11 13 15 17 19 20 21 23 23 26 27 27 28 27 27 25 25 27 26 24 26 27 27 32 36 37 36 38 40 48 50 48 44 43 43 39 36 38 41 42
9 11 13 14 16 18 19 21 23 25 26 28 29 30 31 32 33 33 33 32 31 32 31 30 31 27 27 29 33 39 40 39 43 48 46 48 48 48 45 44 43 43 45
14 15 17 19 20 22 24 25 27 29 30 31 33 34 35 35 36 36 36 39 39 38 35 34 34 33 33 30 30 32 34 37 41 44 47 45 47 48 47 47 46 45 47
16 18 20 21 24 27 28 30 31 32 34 36 37 39 41 41 42 43 42 43 43 43 43 42 40 36 36 36 34 34 33 34 35 40 44 43 43 47 47 49 49 49 47
19 20 23 25 27 29 31 33 35 38 42 45 48 50 51 51 51 50 49 49 50 50 48 48 48 47 42 38 38 38 36 36 36 37 41 41 44 45 49 51 51 50 49
21 23 26 28 30 31 32 35 39 43 46 49 52 54 55 56 54 49 37 41 47 50 53 54 52 52 51 49 44 40 39 39 38 39 40 43 44 42 44 47 48 48 51
21 23 26 30 31 32 36 41 45 48 50 52 52 52 54 55 54 42 35 36 41 48 53 54 56 57 54 53 53 51 46 42 41 40 43 45 43 41 38 42 47 49 54
23 25 28 29 32 36 42 44 46 48 50 52 53 52 54 55 52 48 39 40 45 49 49 51 53 58 58 48 47 51 55 52 48 46 45 46 44 42 41 42 42 43 43
25 28 28 31 36 40 42 45 46 47 49 51 51 52 53 53 48 43 35 40 46 51 51 50 47 49 50 42 41 44 49 56 57 52 50 47 43 39 40 41 45 40 46
25 26 31 36 38 41 41 43 44 45 48 49 51 48 45 43 37 33 29 32 37 40 42 43 40 39 41 40 41 44 48 54 50 52 54 51 47 44 40 44 50 50 51
26 29 33 34 38 39 40 42 43 44 45 47 46 42 38 35 31 28 26 29 34 38 41 42 40 37 39 38 37 42 48 48 46 45 46 50 50 48 47 43 49 53 50
28 33 33 34 35 36 38 40 40 42 43 41 39 39 36 33 32 32 28 29 31 37 43 43 40 35 35 36 39 44 43 41 45 49 47 47 46 50 50 47 44 47 53
31 33 33 34 33 34 36 37 38 38 37 37 36 38 42 41 41 40 35 34 32 35 41 43 41 42 42 42 42 41 43 49 44 46 45 48 49 48 45 42 42 40 44
31 32 32 33 33 34 33 32 33 34 34 34 37 42 42 40 39 38 40 41 44 41 44 47 48 44 40 43 43 43 42 43 47 50 45 43 43 44 44 42 39 38 38
30 31 30 31 32 33 32 29 30 31 29 32 35 37 40 40 39 36 38 39 41 43 44 46 45 44 45 45 44 37 38 40 44 43 49 43 41 36 38 40 42 39 39
29 30 29 29 30 30 31 31 23 27 28 27 28 28 32 33 34 36 36 35 36 37 41 42 41 40 41 43 42 40 37 37 40 32 39 39 33 33 35 43 43 41 41
28 28 28 27 27 28 28 29 34 30 27 27 22 25 26 29 31 32 34 34 34 31 33 37 41 44 43 42 42 41 37 36 32 29 28 25 31 39 40 40 42 43 43
25 24 25 25 25 24 25 26 28 31 33 31 28 28 26 27 30 31 29 28 27 22 23 27 32 37 37 38 39 36 34 31 33 29 26 27 25 30 39 41 41 42 42
23 23 22 22 22 22 21 22 24 26 27 29 30 28 28 33 32 26 24 25 26 27 27 29 31 31 32 29 30 33 31 29 33 37 33 29 28 28 35 37 39 42 43
22 21 21 21 20 19 19 18 20 22 23 25 26 29 31 34 31 31 29 28 27 27 27 28 29 28 26 25 28 32 34 34 28 29 35 33 33 28 29 33 38 41 42
20 19 19 18 18 17 16 16 17 18 20 21 23 24 22 25 28 29 31 30 28 27 27 26 26 26 25 23 21 21 22 26 26 22 26 29 32 26 28 31 35 37 38
19 18 16 16 15 14 13 13 14 16 17 19 20 21 22 24 26 27 28 29 29 28 26 25 24 23 24 23 22 19 17 15 14 17 19 19 20 23 26 29 31 32 33
17 16 14 14 13 13 11 11 12 13 14 16 18 20 21 23 24 25 26 27 27 29 29 28 27 25 22 20 19 18 16 14 12 10 11 11 13 15 18 22 25 26 28
15 15 14 13 12 12 11 11 12 12 13 14 16 17 19 21 22 22 23 25 25 26 26 27 27 27 27 27 21 17 14 12 11 10 8 7 6 7 10 12 16 19 21
15 14 13 13 13 12 11 12 12 12 13 15 16 17 18 19 20 21 22 22 23 24 24 24 25 26 27 27 28 23 18 14 11 9 7 5 2 2 5 8 11 13 15
15 14 14 14 14 14 14 14 14 14 15 16 17 18 19 19 20 20 21 21 22 22 22 22 22 22 23 24 25 25 24 20 17 14 11 8 5 5 5 7 9 11 12
Wind_Direction
17 2 350 348 345 338 333 332 331 332 329 327 327 325 322 321 322 321 318 314 310 307 306 304 297 290 280 275 269 265 266 267 271 270 267 263 259 261 262 261 259 256 254
0 355 349 344 339 333 328 325 324 321 321 321 318 315 314 314 314 313 311 309 307 304 301 299 298 300 292 285 278 274 269 264 267 273 270 265 262 261 262 262 262 260 256
344 342 339 334 331 329 328 326 323 321 319 318 316 313 311 310 307 305 305 305 303 300 299 295 293 294 293 294 289 283 279 274 268 267 269 266 262 260 259 259 258 258 255
329 329 326 322 320 321 322 321 320 318 317 314 311 308 306 305 302 301 299 296 293 292 293 292 290 287 287 288 288 286 285 280 275 271 269 266 263 260 258 257 256 254 253
309 311 312 312 312 315 316 315 315 315 314 312 310 307 305 303 302 302 300 298 295 291 286 284 285 285 283 281 280 281 285 283 280 275 273 272 263 259 256 255 255 257 254
289 294 299 303 307 309 310 311 310 309 306 305 303 303 303 302 302 303 301 297 293 290 288 286 282 278 278 278 276 273 274 278 278 275 274 269 267 264 261 258 257 253 253
277 286 294 300 305 307 309 308 308 307 306 304 302 301 299 298 299 300 297 291 288 287 286 285 283 281 279 276 275 274 269 265 266 271 270 268 269 264 262 260 258 254 253
283 290 297 301 305 307 308 308 308 307 306 306 305 303 301 298 298 296 296 288 280 278 279 279 279 280 279 280 278 276 273 269 261 260 263 268 269 271 262 256 260 265 264
288 296 301 306 309 310 310 311 311 310 308 307 306 304 302 300 301 301 298 290 286 284 282 281 282 282 282 279 276 273 271 269 266 264 261 262 265 265 263 255 246 241 247
295 300 307 311 311 312 314 314 313 313 311 310 308 308 307 305 307 305 300 296 293 293 292 289 289 286 285 281 276 274 272 268 269 268 267 261 260 262 258 244 252 245 242
297 303 309 312 314 315 316 317 316 315 314 313 311 310 311 313 316 314 301 295 292 294 295 295 293 289 284 282 278 271 267 269 270 265 263 264 260 256 257 253 244 247 243
300 309 313 314 315 316 317 318 319 321 319 315 315 316 319 323 323 319 303 296 294 290 290 292 298 296 293 290 282 272 270 271 268 262 258 256 253 255 253 254 251 244 248
306 311 313 314 316 319 319 322 326 325 318 318 320 324 326 327 325 323 310 303 297 294 297 298 294 293 291 286 283 278 276 268 271 270 255 250 250 249 254 253 254 246 248
306 309 312 314 319 318 322 329 328 325 320 322 326 322 318 313 310 308 308 312 311 305 302 301 303 297 289 287 284 280 280 272 261 268 262 247 247 247 246 248 244 244 245
304 308 312 315 317 320 325 334 331 328 320 314 310 310 310 308 310 310 306 303 302 300 299 296 294 294 293 291 286 276 275 278 266 270 248 244 240 241 244 245 240 238 239
305 309 312 315 318 323 326 329 336 329 329 310 308 307 309 307 311 311 307 306 303 300 298 292 291 292 290 287 280 273 275 275 272 278 251 247 231 234 251 242 241 234 236
301 304 308 314 319 323 327 331 333 339 344 342 328 321 319 316 317 319 317 312 305 303 291 290 292 294 294 291 283 276 272 276 271 274 268 250 248 249 245 236 235 237 235
298 300 304 312 318 322 326 332 334 336 343 350 350 346 338 332 330 327 326 322 322 324 321 316 314 311 300 291 288 280 275 271 266 272 272 255 259 249 233 229 229 236 232
294 296 304 310 315 321 323 328 333 339 344 346 350 351 352 353 342 343 344 345 343 339 337 333 334 333 334 318 295 295 289 270 258 262 265 266 264 262 246 242 237 234 230
291 295 302 308 316 316 320 327 333 339 346 351 355 353 1 348 356 1 1 356 352 347 345 343 345 344 346 335 322 310 300 288 280 255 247 255 262 265 256 243 236 231 225
288 292 298 308 314 316 319 328 332 338 344 350 357 357 349 351 5 7 8 6 1 356 352 350 351 350 348 345 342 340 335 303 292 274 261 257 259 264 260 252 246 241 231
285 288 294 304 310 314 318 326 329 334 342 346 352 359 1 3 6 8 10 10 11 9 4 359 358 360 357 354 353 353 352 348 316 282 276 276 273 263 255 246 236 224 215
278 282 289 296 304 311 315 319 324 334 342 348 352 356 1 5 6 7 8 10 12 13 15 16 13 10 8 3 2 2 3 4 359 348 334 313 282 260 245 236 229 219 215
272 277 281 287 297 306 313 317 323 331 337 344 349 354 357 0 3 6 8 8 10 14 15 17 21 22 24 21 12 8 10 12 12 10 5 343 303 260 238 227 217 214 210
267 270 276 283 289 296 304 311 318 325 330 335 340 345 348 350 354 358 1 6 9 9 13 14 16 18 24 28 28 27 24 21 24 28 31 22 338 242 212 201 195 192 192
264 266 271 279 287 294 299 303 308 315 319 323 328 333 335 339 343 348 352 356 0 3 7 10 13 16 19 28 27 29 32 38 46 49 50 54 68 102 129 148 155 157 163